Weather History for KMCK - April, 2012

Change the Weather History Date:

Saturday, April 14, 2012

  Actual Average Record
Temperature  
Mean Temperature 58 °F 49 °F  
Max Temperature 78 °F 64 °F 92 °F (1940)
Min Temperature 38 °F 34 °F 14 °F (1928)
Degree Days  
Heating Degree Days 8    
Growing Degree Days 7 (Base 50)    
Moisture  
Dew Point 48 °F    
Average Humidity 75    
Maximum Humidity 100    
Minimum Humidity 30    
Precipitation  
Precipitation 0.00 in 0.07 in 1.30 in (2011)
Month to date precipitation 1.61 0.87  
Year to date precipitation 2.50 3.36  
Sea Level Pressure  
Sea Level Pressure 29.54 in    
Wind  
Wind Speed 9 mph (East)    
Max Wind Speed 24 mph    
Max Gust Speed 28 mph    
Visibility 7 miles    
Events Fog    
T = Trace of Precipitation, MM = Missing Value Source: NWS Daily Summary

Daily Weather History Graph

Daily Weather History Graph

Search for Another Location

Airport or City:

Trip Planner

Search our weather history database for the weather conditions in past years. The results will help you decide how hot, cold, wet, or windy it might be!

Date:

Astronomy

Apr. 14, 2012 Rise Set
Actual Time 7:04 AM CDT 8:20 PM CDT
Civil Twilight 6:36 AM CDT 8:48 PM CDT
Nautical Twilight 6:03 AM CDT 9:22 PM CDT
Astronomical Twilight 5:28 AM CDT 9:58 PM CDT
Moon 3:30 AM CDT (4/14) 2:15 PM CDT (4/14)
Length of Visible Light 14h 11m
Length of Day
13h 15m
Last Quarter, 37% of the Moon is Illuminated
Apr 14
Last Quarter
Apr 21
New
Apr 29
First Quarter
May 5
Full
May 12
Last Quarter

Hourly Weather History & Observations

Time (CDT) Temp. Windchill Dew Point Humidity Pressure Visibility Wind Dir Wind Speed Gust Speed Precip Events Conditions
12:53 AM 43.0 °F 38.2 °F 39.0 °F 86% 29.75 in 10.0 mi ENE 8.1 mph - N/A   Clear
1:53 AM 43.0 °F 40.3 °F 37.9 °F 82% 29.73 in 10.0 mi East 4.6 mph - N/A   Clear
2:53 AM 42.1 °F 40.2 °F 37.0 °F 82% 29.72 in 10.0 mi NNE 3.5 mph - N/A   Clear
3:53 AM 43.0 °F 41.3 °F 36.0 °F 76% 29.70 in 10.0 mi NNE 3.5 mph - N/A   Clear
4:53 AM 39.9 °F 35.8 °F 36.0 °F 86% 29.69 in 10.0 mi ENE 5.8 mph - N/A   Clear
5:11 AM 41.0 °F 37.1 °F 37.4 °F 87% 29.71 in 10.0 mi East 5.8 mph - N/A   Partly Cloudy
5:33 AM 44.6 °F 41.4 °F 39.2 °F 81% 29.69 in 10.0 mi ENE 5.8 mph - N/A   Mostly Cloudy
5:53 AM 46.0 °F 43.9 °F 41.0 °F 83% 29.67 in 10.0 mi NE 4.6 mph - N/A   Overcast
6:53 AM 46.9 °F - 42.1 °F 83% 29.65 in 10.0 mi ENE 6.9 mph - N/A   Overcast
7:53 AM 48.0 °F - 44.1 °F 86% 29.63 in 4.0 mi East 9.2 mph - N/A   Overcast
8:05 AM 48.2 °F - 46.4 °F 93% 29.65 in 2.0 mi ENE 10.4 mph - N/A   Overcast
8:13 AM 48.2 °F - 46.4 °F 93% 29.66 in 1.2 mi East 9.2 mph - N/A   Overcast
8:32 AM 48.2 °F - 48.2 °F 100% 29.65 in 0.8 mi East 9.2 mph - N/A   Overcast
8:53 AM 48.9 °F - 48.0 °F 97% 29.63 in 1.0 mi East 10.4 mph - N/A   Overcast
9:13 AM 50.0 °F - 48.2 °F 94% 29.64 in 0.8 mi East 11.5 mph - N/A   Overcast
9:53 AM 53.1 °F - 52.0 °F 96% 29.61 in 0.2 mi East 10.4 mph - N/A Fog Fog
10:43 AM 57.2 °F - 55.4 °F 94% 29.59 in 1.5 mi ESE 10.4 mph - N/A   Overcast
10:53 AM 57.9 °F - 57.0 °F 97% 29.57 in 2.5 mi ESE 11.5 mph - N/A   Overcast
11:00 AM 57.2 °F - 57.2 °F 100% 29.58 in 3.0 mi ESE 11.5 mph - N/A   Overcast
11:20 AM 62.6 °F - 59.0 °F 88% 29.56 in 6.0 mi ESE 12.7 mph - N/A   Overcast
11:53 AM 68.0 °F - 57.9 °F 70% 29.50 in 10.0 mi SSE 13.8 mph 21.9 mph N/A   Mostly Cloudy
12:18 PM 71.6 °F - 57.2 °F 60% 29.50 in 10.0 mi South 15.0 mph - N/A   Scattered Clouds
12:53 PM 73.0 °F - 57.9 °F 59% 29.46 in 10.0 mi SSE 9.2 mph 20.7 mph N/A   Mostly Cloudy
1:53 PM 73.9 °F - 57.0 °F 55% 29.41 in 10.0 mi South 17.3 mph 24.2 mph N/A   Scattered Clouds
2:53 PM 75.9 °F - 54.0 °F 46% 29.37 in 10.0 mi South 19.6 mph 24.2 mph N/A   Mostly Cloudy
3:53 PM 72.0 °F - 60.1 °F 66% 29.34 in 10.0 mi SE 20.7 mph 26.5 mph N/A   Mostly Cloudy
4:53 PM 73.0 °F - 60.1 °F 64% 29.31 in 10.0 mi SE 24.2 mph 27.6 mph N/A   Mostly Cloudy
5:53 PM 75.0 °F - 59.0 °F 57% 29.27 in 10.0 mi South 11.5 mph - N/A   Scattered Clouds
6:53 PM 73.9 °F - 41.0 °F 30% 29.28 in 10.0 mi SW 11.5 mph - N/A   Partly Cloudy
7:53 PM 70.0 °F - 39.9 °F 33% 29.29 in 10.0 mi Variable 5.8 mph - N/A   Clear
8:53 PM 63.0 °F - 45.0 °F 52% 29.33 in 10.0 mi North 9.2 mph - N/A   Scattered Clouds
9:53 PM 63.0 °F - 45.0 °F 52% 29.34 in 10.0 mi North 16.1 mph - N/A   Mostly Cloudy
10:53 PM 61.0 °F - 48.0 °F 62% 29.38 in 10.0 mi WNW 12.7 mph - N/A   Mostly Cloudy
11:53 PM 55.9 °F - 46.9 °F 72% 29.35 in 10.0 mi NW 19.6 mph 25.3 mph N/A   Scattered Clouds